TRANSIT 10 DEB, 24705

Orbit data source: Space-Track

TRANSIT 10 DEB, 24705 is space debris in LEO originally from a launch on Wed, 22 Dec 1965 UTC launched from the Air Force Western Test Range (AFWTR). Debris objects in space refer to the collection of defunct objects orbiting the Earth. Examples of debris include non-operational satellites, rocket bodies, and fragments generated from explosions, collisions, or faulty payload assembly.

Loading next visibility...
Identifier
24705, 1965-109E
Orbit
LEO
Last TLE update
5 hours ago
Origin
Manufacturer
Unknown
Mission
Spacecraft
Bus & Motor
Unknown
Mass
Unknown
Launch date (UTC)
1965-12-22 (60 years ago)
Launch vehicle
Unknown
Launch site
Air Force Western Test Range (AFWTR)
Object type
Payload
Rocket body
Debris
Shape & HBR
Unknown
Radar Cross Section
Medium (>0.1 m² and <1 m²)

Expand to show TLE details & history

TLE from 5 hours ago
0 TRANSIT 10 DEB
1 24705U 65109E   25186.53811584  .00002164  00000-0  11655-2 0  9999
2 24705  89.0565 234.6583 0085308 100.2901  36.1235 14.10611497452196
Epoch: 2025-07-05T12:54Z
TLE epoch observation values (Epoch: 2025-07-05T12:54:53.208Z)
Latitude
43.08709°
Longitude
-63.71606°
Altitude
814.072 km
Speed
7.476 km/s
True Right ascension
03h 35m 07s
True Declination
42° 55' 01"
Sunlit
Object was in daylight at epoch
Visualization orbit readout
Latitude
29.40886°
Longitude
117.67073°
Altitude
839.794 km
Speed
7.446 km/s
Apparent Right ascension
16h 26m 55s
Apparent Declination
-2° 51' 47"
Sunlit
Object is in daylight
Visualization observer readout
Local Sidereal Time
05:26:35
Azimuth
23.876° NE
Elevation
-50.557°
Doppler factor
1
Orbital elements
Apogee altitude
915.942 km
Perigee altitude
792.546 km
Semi-major axis
7,232.381 km
Eccentricity
0.00853
Inclination
89.0565°
RAAN
234.6583°
Arg. of periapsis
100.2901°
True anomaly
Unknown
Mean anomaly
36.1235°
Eccentric anomaly
Unknown
Mean motion
3.52875 °/min
Orbital period
102.02 mins
BSTAR
0.0011655
Loading maneuver chart data...
Loading SW <> Apogee altitude chart data...
Loading historical data...
Loading historical data...
Loading historical data...
Loading historical data...
Loading historical data...
Loading historical data...
Loading historical data...

TRANSIT 10 DEB Visibility forecast

Observer location: undefined°, undefined°

Span
Click to sort rows by Start time (UTC) header in descending order
Start Az.
Max El. time (UTC)
Max El. Az.
Max El.
End time (UTC)
End Az.
9 mins2025-07-06 03:43:12.991Z180.047° SSW2025-07-06 03:47:12.991Z314.937° NW44.825°2025-07-06 03:52:12.991Z357.976° N
6 mins2025-07-06 14:25:12.991Z45.771° ENE2025-07-06 14:28:12.991Z88.668° E19.615°2025-07-06 14:31:12.991Z125.457° SE
8 mins2025-07-06 16:06:12.991Z341.168° N2025-07-06 16:10:12.991Z269.045° W34.192°2025-07-06 16:14:12.991Z210.568° SW
|